Regional Weather Roundup
Issued by NWS Austin/San Antonio, TX

Current Version | Previous Version | Text Only | Print | Product List | Glossary On
Versions: 1 2 3 4 5 6 7 8 9 10 11 12 13 14 15 16 17 18 19 20 21 22 23 24 25 26 27 28 29 30 31 32 33 34 35 36 37 38 39 40 41 42 43 44 45 46 47 48 49 50
000
ASUS44 KEWX 052102
RWREWX
SOUTH TEXAS REGIONAL WEATHER ROUNDUP
NATIONAL WEATHER SERVICE AUSTIN/SAN ANTONIO TX
400 PM CDT SUN JUL 05 2020

NOTE: "FAIR" INDICATED FEW OR NO CLOUDS BELOW 12,000 FEET WITH NO
SIGNIFICANT WEATHER AND/OR OBSTRUCTIONS TO VISIBILITY.

* - THESE STATIONS ARE NOT NWS OR FAA STATIONS...AND ARE NOT SUBJECT
    TO NWS AND FAA QUALITY CONTROL.

TXZ171-172-183>190-052200-
TEXAS HILL COUNTRY AND EDWARDS PLATEAU

CITY           SKY/WX    TMP DP  RH WIND       PRES   REMARKS
JUNCTION       MOSUNNY   99  60  27 SE6       29.85F HX  99
*LLANO         MOSUNNY  104  63  25 CALM      29.85F HX 106
BURNET         PTSUNNY   99  57  24 VRB3      29.86F HX  98
*HORSESHOE BAY SUNNY    102  57  22 S3        29.83F HX 101
*LAGO VISTA    SUNNY     97  68  38 SE9       29.86F HX 102
*KERRVILLE     SUNNY     99  57  24 SE6       29.88F HX  98
*FREDERICKSBRG SUNNY     97  58  26 SE5       29.88F HX  96
*ROCKSPRINGS   MOSUNNY   99  54  22 SE14      29.95F HX  96
*BOERNE        SUNNY     95  59  30 S5        29.88F HX  94
*CASTROVILLE   SUNNY    103  58  22 MISG      29.83F HX 103
HONDO          SUNNY    101  59  24 S9G20     29.83F HX 101
*UVALDE          N/A    102  60  24 S10       29.83F HX 102
DEL RIO        SUNNY    109  55  17 S13G21    29.77F HX 108
*LAUGHLIN AFB  SUNNY    106  54  17 S13G20    29.79F HX 104
*SPOFFORD      NOT AVBL
*EAGLE PASS    NOT AVBL
CARRIZO SPRGS  SUNNY    106  55  18 S7        29.77F HX 105
$$

TXZ173-191>194-202-209-217>225-228-052200-
CENTRAL AND SOUTH CENTRAL TEXAS

CITY           SKY/WX    TMP DP  RH WIND       PRES   REMARKS
GEORGETOWN     SUNNY     98  69  38 SE9G20    29.85F HX 104
*TAYLOR        SUNNY     97  71  42 SW10      29.83F HX 104
AUSTIN/BERGSTM MOSUNNY   97  72  44 SE13      29.83F HX 105
AUSTIN/MABRY   SUNNY    100  67  33 VRB6      29.84F HX 105
*PFLUGERVILLE  SUNNY     95  68  41 S7        29.85F HX  99
SAN MARCOS     SUNNY     99  65  32 S8        29.84F HX 102
NEW BRAUNFELS  SUNNY    102  61  25 SW8       29.82F HX 103
*RANDOLPH AFB  MOSUNNY   99  60  27 CALM      29.83F HX  99
*SEGUIN        NOT AVBL
SAN ANTONIO    MOSUNNY  100  62  28 VRB5      29.84F HX 101
STINSON FIELD  SUNNY     98  60  28 VRB3      29.80F HX  98
*KELLY FIELD   SUNNY    101  58  23 S6        29.81F HX 100
*PLEASANTON    SUNNY    101  68  34 S10G16    29.81F HX 106
*KENEDY        SUNNY     97  70  41 S8        29.83F HX 103
*LA GRANGE     PTSUNNY   98  71  41 S9        29.81F HX 107
*GIDDINGS      PTSUNNY   99  65  32 S3        29.85F HX 102
*GONZALES      CLOUDY    99  69  38 S7        29.82F HX 105
$$

TXZ163>164-176>182-195>201-210>213-226-227-235-052200-
SOUTHEAST TEXAS

CITY           SKY/WX    TMP DP  RH WIND       PRES   REMARKS
COLLEGE STN    PTSUNNY   91  73  55 S9        29.84F HX  99
*BRYAN         PTSUNNY   92  75  56 S7        29.85F HX 102
*CALDWELL      PTSUNNY   96  69  42 S6        29.85F HX 102
*CROCKETT      NOT AVBL
*BRENHAM       PTSUNNY   91  77  63 E6        29.85F HX 104
HUNTSVILLE     PTSUNNY   89  73  59 S8        29.85F HX  97
CONROE         PTSUNNY   91  74  57 S6        29.86F HX 100
HOUSTON BUSH   PTSUNNY   95  70  44 W3        29.84F HX 101
HOUSTON HOBBY  PTSUNNY   94  69  44 VRB3      29.84F HX  99
*HOUSTON SW AP MOSUNNY   91  75  60 SW3       29.86F HX 101
PEARLAND       SUNNY     94  70  45 W7        29.86F HX 100
HOUSTON HOOKS  SUNNY     89  71  55 SW5       29.84F HX  95
ELLINGTON FLD  NOT AVBL
SUGAR LAND     SUNNY     93  74  53 SW6       29.84F HX 103
*HOUSTON EXEC  SUNNY     91  73  55 SW7       29.86F HX 100
*CLEVELAND MUN PTSUNNY   91  73  54 CALM      29.87F HX  99
*WHARTON       MOSUNNY   92  68  44 S6        29.87S HX  96
*COLUMBUS      FAIR      91  74  56 SE6       29.85F HX 100
*EAGLE LAKE    PTSUNNY   93  76  57 E7        29.86F HX 105
$$

TXZ214>216-236>238-052200-
THE UPPER TEXAS COAST

CITY           SKY/WX    TMP DP  RH WIND       PRES   REMARKS
*ORANGE        PTSUNNY   85  75  70 S10G17    29.90S HX  94
PORT ARTHUR    PTSUNNY   92  72  51 CALM      29.86F HX  99
GALVESTON      SUNNY     90  77  65 S15G23    29.87F HX 103
ANGLETON       PTSUNNY   90  74  59 CALM      29.87F HX  99
*BAY CITY      MOSUNNY   92  77  60 SW9       29.87F HX 106
PALACIOS       SUNNY     89  77  67 S10       29.86F HX 101
$$

TXZ229>234-239>247-052200-
TEXAS COASTAL BEND AND RIO GRANDE PLAINS

CITY           SKY/WX    TMP DP  RH WIND       PRES   REMARKS
VICTORIA       SUNNY     97  72  44 SE8       29.83F HX 105
*BEEVILLE      SUNNY     97  77  52 S6        29.82F HX 111
ROCKPORT       SUNNY     91  76  61 S10G18    29.83F HX 103
*PORT ARANSAS  SUNNY     87  79  76 SE12      29.85F HX 100
*PORT LAVACA   SUNNY     95  79  60 S12       29.85F HX 112
*INGLESIDE     SUNNY     92  80  65 S13       29.84S HX 110
CORPUS CHRISTI PTSUNNY   94  79  61 SE13      29.82F HX 111
CORPUS NAS     NOT AVBL
*ROBSTOWN      SUNNY     98  73  43 SE6       29.82F HX 108
ALICE          SUNNY    101  67  32 S10       29.80F HX 106
KINGSVILLE NAS NOT AVBL
COTULLA        SUNNY    105  62  24 MISG      29.78F HX 107
LAREDO         SUNNY    103  64  28 S13       29.77F HX 106
$$

TXZ248>255-052200-
DEEP SOUTH TEXAS

CITY           SKY/WX    TMP DP  RH WIND       PRES   REMARKS
BROWNSVILLE    SUNNY     94  73  50 S17G24    29.82F HX 103
PORT ISABEL    SUNNY     94  72  48 S18G29    29.81F HX 102
HARLINGEN      SUNNY     97  69  40 S16G24    29.80F HX 103
*HEBBRONVILLE  SUNNY    101  59  25 SE6       29.82F HX 101
MCALLEN        SUNNY    101  66  31 SE16      29.79F HX 105
*WESLACO       SUNNY     98  68  37 S13G20    29.79F HX 103
FALFURRIAS     NOT AVBL
EDINBURG       SUNNY     99  62  29 SE16      29.79F HX 100
*ZAPATA        SUNNY    104  63  26 S7        29.79F HX 107
$$

TXZ213>215-236>238-242>244-246-247-251-254-255-052200-
CMAN STATIONS

STATION/POSITION TIME  TEMP    WIND        PRES    WAVE
                       AIR SEA DIR/SP/G            HT/PER
                 (UTC) (F)     (DEG/KT/KT) (MB)    (FT/S)
SABINE PASS      2024   86 87  210/  9/ 16 1013.2
NORTH JETTY/GLS  2024   87 86  210/ 12/ 16 1010.3
EAGLE POINT      2024   88 87   50/  6/  7 1010.9
MORGANS POINT    2024   90 87   80/  2/  3 1011.2
PORT O`CONNOR    2030   85 84  190/ 11/ 13 1010.9
PORT ARANSAS     2000   83 85  150/ 12/ 13 1010.7
MALAQUITE BEACH  2030   82     130/ 14/ 16   N/A
BAFFIN BAY       2030   86 91  120/ 17/ 20 1010.2
PORT ISABEL      2030   89 82  150/ 18/ 23 1012.3
$$



USA.gov is the U.S. government's official web portal to all federal, state and local government web resources and services.